GFSCGP_prec_cloud_003.txt.gz
Cloud_Cover
5 4 100 100 26 11 16 5 11 81 4 2 5 76 100 93 4 100 64 0 0 0 0 0 0 0 0 0 0 0 0 0 0 0 3 0 0 0 0 0 0 5 4 5
10 55 100 100 100 90 70 19 28 82 100 99 88 100 100 100 98 7 5 10 0 0 0 0 0 0 0 0 0 0 0 2 0 1 5 5 5 5 5 5 5 4 5 5
70 100 100 94 45 92 50 43 4 5 18 14 78 100 100 100 94 88 7 14 91 28 0 0 0 0 0 0 0 0 0 0 5 2 4 5 12 82 40 17 5 5 5 5
100 100 100 100 97 69 8 11 13 5 5 52 18 28 100 100 100 100 100 61 72 100 95 50 0 0 0 0 0 0 0 0 0 0 2 11 38 78 38 5 5 5 5 17
100 100 100 100 100 87 83 63 5 5 89 98 98 14 100 100 100 100 100 100 50 34 5 5 12 13 1 1 0 0 0 0 0 0 0 0 0 0 2 5 63 76 48 24
84 100 100 100 100 100 37 83 42 7 5 20 68 2 95 100 100 100 100 100 100 100 98 100 100 100 76 25 4 4 5 0 0 0 3 2 0 4 5 16 54 9 5 4
71 100 64 17 29 58 43 46 50 5 15 29 58 0 96 100 100 100 100 100 100 100 100 94 100 100 100 100 100 77 6 5 2 0 2 0 0 0 0 1 3 5 5 5
73 83 97 39 77 94 92 100 86 90 3 4 5 4 93 100 99 5 32 100 100 100 100 100 59 93 100 100 100 100 100 94 61 3 2 3 4 1 0 0 0 5 5 13
100 26 22 77 98 100 100 65 100 100 100 91 11 22 0 100 100 95 96 100 84 99 100 100 100 100 100 100 100 100 100 100 100 100 100 16 40 65 99 75 14 6 40 100
100 100 100 100 24 78 100 100 100 100 100 100 100 100 92 71 85 6 74 87 100 100 100 93 83 97 92 100 100 100 100 100 100 100 100 100 100 100 100 100 100 100 100 100
100 95 100 29 14 70 100 100 100 100 100 100 100 96 94 96 87 33 5 29 95 100 100 100 91 26 90 99 100 100 79 96 100 100 100 100 100 100 100 100 100 100 100 100
100 100 100 15 100 77 56 100 100 100 100 100 100 100 98 100 96 97 64 100 100 100 100 95 30 99 100 100 100 100 52 3 98 100 100 100 100 100 100 100 100 100 100 100
100 100 100 100 89 100 100 100 100 100 100 100 100 100 100 100 100 100 100 100 100 100 100 95 93 3 15 5 29 27 88 94 81 7 5 49 100 100 100 100 100 100 100 100
100 100 100 100 100 100 100 100 100 100 100 100 100 100 100 100 100 100 100 100 100 100 24 89 16 5 5 2 94 50 94 100 100 100 100 100 100 100 96 59 100 100 100 100
100 100 100 100 100 100 100 100 100 98 100 100 100 100 100 100 82 63 10 26 100 100 100 100 90 100 100 96 91 73 32 13 87 100 100 100 100 100 100 100 100 100 100 100
100 100 100 96 48 100 100 100 100 100 100 100 100 100 100 87 60 48 100 100 27 96 100 100 100 100 100 100 100 99 100 100 95 100 17 46 87 96 69 99 11 100 100 100
100 100 100 100 91 100 64 18 81 50 95 75 100 100 100 100 100 100 100 100 100 100 100 85 92 100 100 100 100 100 100 100 100 96 44 69 8 35 10 97 89 34 96 100
57 66 94 82 28 12 0 2 3 42 100 100 100 100 100 100 100 100 100 100 100 100 100 100 100 100 100 100 100 100 100 100 100 100 100 100 100 100 77 100 100 100 100 100
6 26 84 90 5 17 0 38 30 83 92 90 91 99 97 65 94 100 100 100 100 100 100 100 82 88 100 100 100 66 100 100 100 100 100 100 100 100 100 100 100 100 100 100
20 99 100 9 99 100 73 5 31 83 84 98 99 100 100 99 99 7 100 100 99 100 100 94 79 100 100 100 92 100 100 56 28 15 68 100 100 100 100 100 100 100 100 100
4 3 4 51 22 2 4 3 0 14 0 24 100 80 27 5 5 0 3 31 100 81 100 100 92 66 100 100 99 98 99 100 69 100 97 100 95 99 100 97 96 100 100 100
10 5 4 68 99 11 1 26 76 8 73 74 81 78 80 71 31 2 4 12 98 93 100 99 36 100 100 100 100 100 100 100 100 100 100 100 100 100 84 100 99 88 96 100
4 2 0 0 0 0 0 1 0 0 4 3 32 14 23 34 44 7 1 0 0 4 44 97 100 100 100 100 100 98 95 100 100 100 100 100 100 100 100 100 100 100 100 100
4 5 4 9 0 0 0 0 0 0 0 0 0 0 0 0 0 2 0 0 0 0 0 0 92 100 100 100 100 100 28 100 100 100 100 100 100 100 100 100 100 100 100 100
0 27 3 1 0 3 0 0 0 0 0 0 0 0 0 1 0 0 0 0 0 0 0 0 0 49 96 100 100 100 100 100 100 100 100 100 100 100 100 100 100 100 100 100
8 2 4 7 0 17 0 0 0 0 0 0 0 0 0 1 0 0 0 0 0 0 0 1 4 3 0 28 73 84 100 98 97 100 100 100 100 100 100 100 100 100 100 100

GFSCGP_prec_cloud_006.txt.gz
Cloud_Cover
5 17 81 41 5 93 72 80 94 100 100 5 55 94 100 100 3 3 0 0 0 0 0 0 0 0 0 0 0 4 5 6 5 5 5 5 6 5 5 0 0 0 0 0
35 33 5 0 0 0 3 73 98 83 100 91 26 18 100 100 100 79 53 41 4 0 0 0 0 0 0 0 0 0 2 5 12 5 5 5 5 5 5 3 5 4 0 1
63 80 42 52 16 0 9 1 25 5 95 100 100 100 99 100 100 100 100 100 100 98 100 78 21 2 3 1 0 0 0 0 1 2 0 4 5 5 5 4 2 2 5 5
100 98 100 99 100 36 68 61 10 6 48 73 93 44 100 100 100 100 100 100 93 56 100 100 100 98 70 1 0 0 0 3 0 0 0 0 0 0 0 5 5 5 4 5
100 100 96 88 59 15 5 5 7 63 57 92 100 41 100 100 100 100 100 100 100 43 22 6 7 5 59 0 0 0 0 1 5 0 0 0 0 0 0 0 0 5 21 13
62 48 93 97 96 21 47 7 5 5 46 92 79 34 100 100 100 100 100 100 100 100 100 100 60 100 26 4 5 0 0 0 0 0 1 4 0 0 0 0 0 0 0 0
11 30 98 5 6 91 97 76 26 32 5 26 68 4 100 100 100 100 100 32 5 55 96 100 100 100 100 100 84 8 4 3 0 0 0 1 3 4 4 4 4 4 2 0
98 88 96 27 85 99 100 100 100 98 95 15 5 3 96 100 100 100 100 54 100 98 97 72 96 24 100 100 100 100 99 88 39 88 9 0 4 77 42 63 5 4 2 5
100 96 100 87 93 100 100 99 100 100 100 100 98 68 63 100 100 100 98 80 100 14 30 5 5 1 5 4 8 70 100 100 100 100 100 100 5 16 99 100 69 57 41 57
100 100 100 100 100 100 100 100 100 100 100 100 100 100 92 100 100 100 100 100 98 84 30 19 4 32 4 1 1 3 10 100 100 100 100 100 100 60 29 46 58 73 9 80
100 100 46 100 100 100 100 100 100 100 100 100 100 100 100 100 100 100 100 100 100 100 100 91 32 8 5 5 8 93 16 28 92 76 90 100 100 100 100 100 100 100 100 100
100 100 100 100 100 100 100 100 100 100 100 100 100 100 100 100 100 100 100 100 100 100 100 100 58 4 5 1 6 100 100 80 95 100 53 79 100 100 100 100 100 100 100 100
100 100 100 100 100 100 100 100 100 100 100 100 100 100 100 100 100 100 100 100 100 100 100 100 94 100 100 100 100 100 98 100 98 100 100 84 100 100 81 100 100 100 100 100
100 100 100 100 100 100 100 100 100 100 100 100 100 100 100 100 100 100 100 100 100 100 100 100 100 100 66 99 97 56 100 78 94 100 100 100 100 100 89 81 100 100 100 100
91 100 100 93 100 100 100 99 38 74 100 100 98 100 100 83 91 100 100 100 68 100 100 100 100 97 86 100 100 100 95 100 100 100 95 100 100 95 100 89 100 100 100 100
54 100 100 87 13 100 100 9 5 5 4 100 100 38 60 5 42 95 100 100 100 100 95 100 100 100 100 100 69 100 100 100 100 100 100 100 100 100 100 100 100 100 100 100
100 100 100 83 3 40 79 0 0 0 0 4 47 76 25 31 48 88 64 100 99 91 100 97 69 89 100 100 100 100 96 13 5 5 22 100 100 100 100 100 100 100 100 100
87 82 100 100 91 92 0 3 4 53 80 41 66 95 79 98 97 100 72 92 20 18 16 18 56 74 100 100 100 42 100 97 29 42 35 7 82 100 100 100 100 100 100 100
5 5 89 74 60 0 0 1 0 2 58 12 100 100 100 73 10 96 100 98 38 5 5 5 5 99 100 100 100 100 8 45 24 5 12 90 57 13 100 100 12 60 100 100
0 8 98 100 100 65 4 0 0 3 47 5 75 64 98 95 5 0 0 0 0 5 31 5 5 30 46 55 5 5 9 9 100 41 69 100 100 100 69 27 6 6 9 84
8 7 77 76 100 70 0 0 0 3 1 0 5 5 5 25 4 0 0 0 0 0 0 0 0 0 0 4 0 5 18 100 100 100 100 100 100 93 99 70 77 90 82 19
0 1 3 37 73 1 0 1 3 4 4 0 0 0 0 0 0 0 0 0 0 0 0 0 0 0 0 0 0 3 46 98 100 19 39 100 100 100 85 100 100 100 100 100
4 3 35 26 5 5 25 45 8 33 5 5 4 0 0 0 0 0 0 0 0 0 0 0 0 0 0 0 0 0 0 3 50 42 7 43 100 100 100 100 100 100 100 100
5 15 43 15 1 9 21 46 66 21 6 2 0 0 0 0 0 0 0 0 0 0 0 0 0 0 0 0 0 0 0 0 5 5 19 5 86 100 98 100 100 100 100 100
6 6 25 5 0 6 3 1 2 4 5 4 0 0 0 2 0 0 0 0 0 0 0 0 0 0 0 0 0 0 0 5 5 5 5 5 21 100 100 100 98 100 97 100
46 3 36 9 4 37 2 0 2 1 2 5 1 0 0 0 4 5 0 0 0 0 0 0 0 5 4 5 5 12 60 27 12 61 11 22 47 100 100 100 100 84 100 100

GFSCGP_prec_cloud_009.txt.gz
Cloud_Cover
8 5 24 5 5 5 5 20 6 71 34 10 100 90 98 100 100 100 100 6 5 4 0 0 0 0 0 0 4 5 0 0 5 5 5 5 5 5 5 0 0 0 0 5
96 78 84 53 5 5 69 5 98 100 100 100 95 73 100 100 100 100 100 100 64 98 100 32 6 0 0 0 0 3 1 0 1 5 5 5 5 5 5 5 5 4 1 1
49 6 7 5 5 6 78 73 46 13 80 88 20 100 100 100 100 100 100 100 100 100 100 10 14 57 47 2 0 0 0 1 5 5 0 4 5 5 4 4 3 2 4 5
56 100 76 14 64 4 44 8 12 19 5 67 77 76 100 100 100 100 100 100 100 100 100 87 9 82 38 18 4 0 0 0 0 1 4 0 3 39 16 0 0 0 0 1
100 100 100 78 44 100 84 69 43 20 95 78 100 100 100 100 100 100 100 100 100 96 4 19 6 71 14 29 42 5 53 5 0 0 0 0 0 1 39 64 89 59 5 0
58 12 100 76 99 100 34 9 6 5 11 6 93 32 100 100 100 100 100 100 100 92 77 100 96 100 95 100 100 100 64 21 0 0 1 0 0 0 5 15 61 56 73 100
23 52 100 23 34 84 100 99 30 13 5 10 65 2 100 100 100 100 100 100 73 0 4 5 75 100 100 100 100 100 100 100 89 94 60 5 0 0 5 4 5 16 82 12
68 53 40 90 31 62 100 100 100 100 99 5 4 14 66 96 100 100 99 9 6 2 2 21 14 7 79 100 100 100 100 100 100 100 100 100 99 9 4 5 5 5 46 100
95 6 96 100 100 100 100 98 100 100 100 100 74 7 97 100 100 91 12 10 15 7 7 5 32 56 5 61 100 100 65 100 100 100 100 100 100 100 100 35 5 5 89 98
100 76 63 100 100 100 100 100 100 100 100 100 100 100 25 100 100 100 100 100 100 99 96 75 99 92 97 6 100 100 87 5 99 100 100 100 100 100 99 100 100 27 95 48
100 100 100 100 100 100 100 100 100 100 100 100 100 100 100 94 100 100 100 100 100 100 100 100 100 100 100 24 27 79 100 100 100 100 100 100 100 100 100 8 57 100 94 95
100 100 100 100 100 100 100 100 100 100 100 100 100 100 100 100 100 100 100 100 100 100 100 100 100 100 100 84 61 5 98 99 100 100 64 92 100 100 100 48 5 18 100 100
100 100 100 100 100 100 100 100 100 100 100 100 100 100 100 100 100 100 100 100 100 100 100 100 100 100 100 100 100 100 93 84 100 100 100 76 100 100 100 99 100 100 100 100
100 100 100 100 97 42 89 98 100 100 100 100 100 100 100 32 44 100 100 97 58 51 100 100 100 100 100 100 100 100 100 100 90 100 100 100 100 100 100 100 100 100 100 100
100 100 93 30 92 100 100 37 32 80 93 100 80 96 5 6 5 4 2 12 6 0 1 4 5 5 56 66 94 95 100 100 100 100 100 100 100 100 100 100 100 100 100 100
66 99 100 83 5 100 100 11 5 5 5 95 98 34 5 5 5 5 5 1 1 2 5 12 6 5 5 5 5 65 100 86 100 52 100 100 100 100 100 100 100 100 100 100
100 100 100 92 5 73 93 1 0 0 0 0 0 4 7 5 5 5 5 5 5 5 5 5 5 3 0 0 0 3 100 100 80 5 41 72 43 62 100 100 100 100 100 100
100 94 100 100 99 97 0 4 0 2 17 34 37 90 85 93 53 20 86 95 66 85 27 5 5 0 0 0 0 0 3 20 68 100 22 82 100 48 100 100 100 100 100 100
5 5 88 74 79 24 1 0 0 1 8 5 5 85 92 70 5 2 11 12 2 3 3 3 1 0 0 0 0 2 5 0 0 5 4 4 9 66 100 100 100 100 100 100
0 71 99 100 100 84 0 0 0 0 3 5 5 0 2 5 7 0 0 0 0 0 0 0 0 0 0 0 0 0 4 0 0 0 0 4 0 12 80 100 83 96 100 99
3 64 97 85 100 77 3 12 26 30 2 5 4 2 4 4 0 0 0 0 0 0 0 0 0 0 0 0 0 1 0 0 0 0 0 0 0 2 32 50 100 88 10 5
0 3 5 57 79 79 4 5 22 63 6 5 4 0 0 0 0 0 0 0 0 0 0 0 0 0 0 0 0 0 0 0 0 2 0 0 0 0 84 98 62 94 72 5
6 0 42 5 5 7 5 13 69 57 9 5 5 5 5 5 5 1 0 0 0 0 0 0 0 0 0 0 0 0 0 1 5 5 3 0 0 0 0 5 89 100 77 95
2 1 4 29 18 100 100 100 100 99 46 5 5 5 0 1 4 5 0 0 0 0 0 0 0 0 0 0 2 5 5 5 5 5 5 5 8 7 5 5 5 5 18 100
1 7 66 24 5 100 58 41 29 6 16 5 3 4 5 5 3 5 1 0 0 0 0 0 4 5 2 2 3 5 11 67 58 81 95 100 97 69 87 72 36 59 58 100
11 13 67 15 14 98 4 5 5 4 5 5 5 5 4 5 5 4 0 0 0 0 0 0 2 6 5 10 45 94 100 100 100 100 100 100 100 100 100 100 97 40 99 99

GFSCGP_prec_cloud_015.txt.gz
Cloud_Cover
56 16 28 57 100 100 8 5 65 100 97 14 33 87 100 19 34 91 90 5 0 0 0 5 5 32 0 0 9 80 100 89 6 21 14 93 53 6 100 59 58 7 1 0
38 27 55 52 46 54 90 100 100 100 98 64 90 94 22 71 100 49 88 23 100 55 5 6 5 5 3 4 6 100 53 83 89 11 6 42 98 87 62 34 2 15 4 34
88 80 60 100 100 100 97 90 100 100 100 100 100 100 72 99 98 82 2 3 44 40 56 28 50 21 5 5 14 99 100 100 100 96 15 8 97 100 81 87 19 54 33 11
100 100 75 64 48 15 22 13 15 93 100 99 95 86 100 100 100 66 100 94 5 5 5 18 14 19 54 100 98 100 100 100 100 100 96 8 2 7 18 94 100 91 4 5
98 100 100 100 100 84 60 43 96 14 19 90 100 99 100 100 100 100 100 100 73 5 24 67 36 10 5 5 68 100 58 84 95 100 13 94 37 0 2 5 5 84 100 46
50 67 83 87 79 98 78 99 100 100 100 84 98 57 99 100 37 96 100 100 100 83 28 6 76 100 93 79 77 5 57 98 95 25 32 55 5 6 10 4 6 2 48 10
11 47 79 95 26 59 97 98 45 8 44 100 90 49 100 100 56 84 100 67 97 95 10 30 6 38 79 80 86 100 100 81 49 21 96 100 94 29 5 4 4 36 59 62
91 96 100 14 100 100 100 92 100 97 29 14 95 25 100 60 100 24 1 9 64 27 3 2 4 3 4 5 12 35 99 100 100 100 100 100 97 45 48 24 5 89 12 6
100 100 100 100 100 100 100 100 100 100 59 78 5 51 100 98 29 5 15 39 5 5 4 5 5 20 8 13 13 65 9 96 100 100 100 100 100 100 100 100 100 100 100 76
100 100 100 100 100 100 100 100 100 100 100 99 21 20 94 100 70 99 41 45 15 24 6 30 20 13 64 49 33 96 91 100 100 80 100 100 100 100 100 100 100 100 100 100
100 100 100 100 100 100 100 100 100 100 100 100 100 100 91 100 100 96 91 32 42 65 100 100 100 85 100 99 100 100 97 100 100 100 100 100 100 100 100 100 100 100 100 100
100 100 100 45 94 100 100 100 100 100 100 100 100 100 100 100 90 100 97 5 98 100 96 92 99 100 100 100 100 100 100 100 100 100 100 100 100 100 100 100 100 100 100 100
94 99 94 80 93 100 100 100 100 100 100 100 100 75 100 100 100 100 100 100 96 100 100 100 100 100 100 100 100 100 100 100 100 100 100 100 100 100 100 100 100 100 100 100
99 30 46 5 4 50 100 100 100 100 100 100 100 100 100 100 100 100 100 100 87 96 79 85 100 100 100 100 100 94 83 61 98 100 43 26 100 100 100 100 100 100 100 100
32 20 22 5 5 5 46 44 5 51 23 79 29 81 5 19 64 17 1 1 35 32 12 4 5 32 99 97 3 0 5 11 3 0 0 0 0 0 0 15 99 100 100 100
49 49 5 5 2 4 5 0 0 3 5 5 5 15 0 2 0 0 0 0 1 1 1 5 5 5 5 5 1 0 0 0 0 90 1 0 0 0 0 0 0 0 47 87
5 5 6 4 0 5 35 0 1 2 0 4 54 7 0 2 1 0 0 3 6 73 75 43 28 25 5 0 0 0 0 0 0 0 0 0 0 0 0 0 0 0 0 0
5 5 76 48 28 92 0 0 0 2 0 0 3 4 2 4 3 23 47 54 32 6 38 5 4 0 0 0 0 0 0 0 0 0 0 0 0 0 0 0 0 0 0 0
0 3 98 96 78 7 0 0 0 1 0 0 4 4 5 18 8 5 94 10 1 5 24 10 0 0 0 0 0 0 0 0 0 0 0 0 0 0 0 0 0 0 0 0
0 4 61 65 84 14 0 26 1 0 2 4 0 5 32 99 53 0 2 0 0 0 0 0 0 0 0 0 0 0 0 0 0 0 0 0 0 1 5 5 5 5 5 2
3 4 13 42 78 35 4 6 4 41 2 4 5 3 5 8 16 4 0 0 0 0 0 3 0 0 0 0 0 0 0 0 0 0 5 5 5 61 86 90 98 100 100 93
0 2 5 64 49 72 0 1 0 0 0 1 3 19 5 2 0 1 0 0 0 0 0 0 0 0 0 0 0 0 0 0 1 5 5 5 5 61 99 100 100 100 100 100
3 0 4 38 72 4 0 0 0 0 0 0 3 0 0 0 0 0 1 0 0 0 0 0 0 0 0 0 0 0 0 5 5 5 5 5 23 72 97 100 100 100 100 100
0 0 43 17 0 0 0 3 5 5 4 2 1 0 0 5 5 5 5 5 2 0 0 0 0 2 0 0 0 5 5 5 23 72 94 100 100 100 100 100 100 100 100 100
0 6 2 61 0 1 0 5 24 80 53 19 19 5 5 17 32 44 5 2 3 0 0 0 0 0 0 2 5 5 5 16 100 100 100 100 100 100 100 100 100 100 100 100
0 0 32 10 4 5 0 5 5 66 13 11 12 17 17 69 49 6 5 5 2 0 0 0 3 5 5 5 5 5 12 99 91 100 100 100 100 100 100 100 100 100 100 100

GFSCGP_prec_cloud_021.txt.gz
Cloud_Cover
5 5 5 4 5 5 60 85 97 71 5 6 99 100 100 100 100 82 100 100 100 84 4 5 5 7 5 5 5 1 5 5 4 2 14 12 1 2 38 98 100 100 100 100
5 5 5 5 5 83 62 45 48 53 12 30 100 100 100 100 100 100 100 100 100 100 100 62 91 64 17 1 0 12 18 75 56 12 6 42 98 31 6 92 100 100 100 100
6 5 5 5 5 5 30 6 53 9 44 71 51 41 100 100 100 100 100 100 100 100 100 100 100 100 100 100 84 12 5 5 6 5 4 5 4 72 30 66 100 100 92 100
36 6 5 5 5 5 14 36 33 8 5 3 5 71 100 100 100 100 100 100 100 100 100 100 100 100 100 100 100 100 100 100 95 53 75 5 1 1 53 69 8 92 90 77
98 98 81 23 9 5 41 6 5 6 86 99 74 4 99 13 20 93 60 5 73 96 27 100 100 100 100 100 100 100 100 100 100 100 100 100 62 5 5 5 84 96 100 100
70 41 16 46 18 27 20 26 8 10 59 21 50 17 100 77 5 5 28 94 48 23 5 5 30 74 93 100 100 100 100 100 100 100 100 100 100 99 84 6 12 6 29 91
54 75 71 73 85 86 89 69 95 28 26 49 58 37 95 43 7 14 7 4 14 74 13 10 25 50 77 23 88 39 66 100 100 100 100 100 100 100 100 76 20 20 94 59
67 13 34 19 5 7 7 81 48 37 6 8 18 11 10 7 93 97 54 21 7 16 98 5 50 99 8 90 80 27 5 9 76 100 100 100 99 92 100 100 100 100 78 24
95 50 45 9 7 18 13 66 40 72 78 33 5 38 100 100 100 100 100 99 96 100 32 52 100 100 100 95 99 100 76 100 100 100 100 97 100 85 99 59 100 100 96 100
72 89 75 47 54 100 100 84 95 100 100 100 100 100 100 100 100 100 100 84 24 5 7 58 77 90 100 98 100 100 52 75 89 95 100 100 100 100 100 69 20 20 98 98
100 84 76 36 93 100 97 9 26 84 100 100 98 6 80 100 100 60 60 12 79 87 90 91 75 76 15 79 99 98 100 98 98 100 100 100 100 100 100 100 100 93 41 36
76 100 100 100 100 100 100 100 76 98 100 100 96 19 100 48 15 73 6 5 5 7 7 6 53 95 97 90 100 100 90 98 100 100 77 89 100 100 96 93 100 100 100 100
100 100 100 92 98 100 100 100 100 100 100 80 100 99 100 100 100 100 35 1 0 0 2 1 0 0 0 3 4 0 0 0 6 73 60 97 100 86 100 100 99 100 100 100
100 100 80 70 100 100 100 100 100 100 100 100 100 100 100 100 99 34 5 4 0 0 3 1 0 0 0 5 0 2 5 5 5 5 4 3 0 1 21 88 93 100 100 99
96 100 100 100 100 100 100 100 100 100 100 100 100 100 100 100 44 14 1 0 1 5 5 2 0 0 1 0 4 5 5 84 44 5 3 2 0 0 0 1 28 62 98 72
100 100 100 100 100 100 100 100 100 100 100 100 100 100 87 0 0 0 0 0 5 5 5 5 5 0 2 5 5 5 5 5 1 0 2 0 0 0 0 0 0 0 0 0
100 100 100 100 100 100 82 100 100 100 100 100 33 0 1 0 0 0 1 2 5 5 4 2 5 40 83 5 5 5 5 0 5 5 0 1 3 0 0 1 0 0 0 0
100 100 100 100 100 100 100 100 100 96 11 0 4 5 5 0 0 0 0 0 0 0 0 0 1 3 5 5 5 5 1 4 4 5 5 5 5 5 5 0 0 0 1 5
100 100 100 100 100 100 84 98 99 58 13 0 5 5 4 5 5 5 1 0 0 2 5 5 5 0 1 5 1 0 2 4 5 0 0 5 4 5 0 4 4 5 5 5
100 100 100 100 100 98 60 57 86 51 4 5 5 5 3 0 1 0 0 0 0 0 0 0 0 0 0 0 0 0 5 5 0 1 0 0 0 5 5 5 5 5 5 5
100 100 71 96 100 48 5 15 92 72 15 5 1 0 0 0 0 0 0 0 0 0 0 0 0 2 2 0 0 0 0 1 2 3 2 5 5 5 5 5 5 5 16 86
4 5 8 52 100 78 41 28 90 28 3 0 0 0 0 0 0 0 0 0 0 0 0 0 5 5 5 5 4 0 0 0 3 4 5 5 5 5 5 5 5 69 93 100
100 100 97 97 93 9 65 44 5 0 0 0 0 0 0 0 0 0 0 0 0 0 4 5 5 5 5 5 5 5 1 3 5 5 5 5 5 5 5 5 5 91 100 100
59 30 24 12 26 5 98 86 3 0 0 0 0 0 0 0 0 0 0 0 0 4 27 94 6 64 5 5 5 5 5 5 5 5 5 7 9 5 5 5 22 100 100 100
2 3 0 1 0 5 0 2 0 2 5 0 0 0 0 5 3 4 4 5 5 12 75 42 51 61 38 17 7 5 5 5 19 18 59 57 62 80 53 66 86 100 100 100
0 0 3 0 0 0 0 0 5 15 5 3 2 0 1 5 5 5 5 5 4 94 93 66 10 73 72 97 89 6 5 5 5 89 72 76 100 100 97 100 99 48 100 100

GFSCGP_prec_cloud_024.txt.gz
Cloud_Cover
5 5 5 5 10 5 5 25 52 52 100 75 100 100 98 60 100 100 100 100 100 100 100 100 100 100 5 5 13 100 100 98 42 73 53 25 1 6 34 100 100 100 100 100
5 6 22 24 6 8 5 5 5 5 7 23 56 99 100 46 52 54 66 97 100 100 100 100 100 100 100 100 56 13 61 100 100 100 100 98 71 17 5 88 100 100 100 100
5 56 33 26 24 5 5 5 0 0 0 2 5 5 15 4 5 22 75 24 66 70 100 99 96 100 100 100 100 100 100 100 100 100 100 91 58 99 100 59 98 100 100 100
32 13 5 15 11 19 66 5 4 4 0 4 4 1 54 2 5 5 60 100 99 75 87 94 100 100 94 27 96 100 100 100 100 100 100 100 100 72 15 87 32 40 98 85
99 100 22 33 55 12 34 5 14 71 91 59 42 4 37 74 52 91 32 51 98 82 69 89 98 100 94 99 100 100 100 75 21 100 99 100 100 100 100 100 100 92 48 13
6 23 57 6 58 46 17 64 33 5 5 6 48 5 43 77 34 5 7 5 5 2 5 5 6 7 62 41 59 33 55 95 100 84 84 81 83 81 100 100 100 100 100 99
67 100 100 92 53 91 100 100 61 45 22 9 14 19 100 97 49 5 6 10 5 5 6 34 6 5 51 76 10 100 87 18 14 100 92 66 100 100 97 96 100 100 100 100
100 100 99 91 58 96 82 99 96 22 16 41 79 54 100 80 21 40 5 5 4 56 34 44 56 78 51 36 3 4 36 5 5 61 100 89 37 61 100 100 100 100 95 74
100 100 100 94 92 18 100 20 6 22 7 7 5 57 19 5 7 5 3 4 71 53 99 97 19 5 5 5 5 5 15 38 36 5 4 0 5 30 94 95 100 100 100 100
100 78 70 86 100 99 96 65 57 43 25 83 5 6 26 76 18 98 31 80 7 5 5 5 5 5 20 40 80 67 89 44 52 62 32 5 5 4 14 70 64 72 38 26
100 100 14 57 89 96 98 69 94 93 12 100 8 5 5 90 98 79 92 38 7 20 5 5 30 36 66 86 100 86 82 5 5 5 5 5 5 5 5 13 59 25 42 85
100 94 59 100 100 100 100 72 64 99 60 89 87 6 93 100 71 63 71 5 5 6 23 22 16 90 100 100 83 10 0 0 0 0 0 0 0 0 0 0 0 2 68 100
78 84 68 20 49 100 93 95 100 100 100 100 100 100 100 100 98 100 74 99 100 100 100 100 100 100 100 48 5 0 0 0 0 0 0 0 0 0 0 0 0 0 0 78
92 94 54 5 58 97 100 100 93 100 100 100 100 100 99 100 100 41 82 100 100 100 100 89 27 5 5 5 5 5 2 0 2 4 5 5 5 3 0 0 4 5 5 5
86 100 98 99 63 99 100 86 88 100 100 100 99 100 100 100 100 100 100 100 100 52 5 5 5 5 5 5 5 29 5 5 30 5 4 1 0 0 0 3 2 1 0 0
100 99 100 100 100 100 100 100 100 100 100 100 100 20 100 100 100 100 100 100 87 5 0 5 5 5 5 2 2 5 5 5 0 0 2 0 0 0 0 3 5 0 0 0
100 100 100 100 100 100 38 100 100 100 100 100 100 100 100 100 100 63 55 61 99 18 5 5 5 4 0 0 5 5 3 0 5 5 5 4 5 5 5 1 0 0 0 0
100 100 100 100 100 64 100 100 100 100 100 100 100 100 100 45 2 0 5 5 5 5 4 0 0 0 5 5 3 0 0 5 5 5 5 5 5 5 0 0 0 0 0 0
100 100 100 100 100 100 100 100 100 100 100 100 100 100 3 4 4 5 19 13 49 6 1 3 3 2 0 0 0 0 2 5 1 0 5 5 4 5 3 5 5 5 5 4
100 100 100 100 100 100 100 100 100 100 44 85 3 3 5 26 5 5 6 4 0 0 0 0 0 0 0 0 0 0 5 5 5 5 1 0 4 5 5 5 5 5 5 5
100 100 100 100 100 96 100 100 95 11 6 7 45 27 12 5 5 1 0 0 0 0 0 0 0 0 0 0 0 0 4 5 5 4 3 5 5 5 5 5 5 5 5 52
100 100 100 100 100 95 100 49 16 89 99 64 5 5 0 0 0 0 0 0 0 0 0 0 0 0 0 3 3 5 5 5 5 5 5 5 5 5 5 5 5 5 28 98
100 100 100 100 100 60 23 100 57 32 8 5 0 0 0 0 0 0 0 0 0 0 0 0 0 1 5 32 60 5 5 5 5 5 5 5 5 5 5 5 5 50 54 84
100 100 99 42 40 84 98 100 29 5 5 5 0 0 0 0 0 0 0 0 0 3 3 5 5 5 72 82 58 13 38 5 5 31 5 5 5 5 5 5 5 63 96 100
51 0 0 2 1 48 32 5 5 5 5 5 5 4 3 4 0 0 0 0 5 5 5 5 5 6 93 82 94 76 14 5 6 5 5 5 5 5 5 5 5 85 100 100
0 0 0 5 5 72 3 1 5 5 5 5 73 30 5 6 4 2 0 2 5 5 5 5 5 5 95 98 96 94 65 5 20 7 5 5 15 10 34 54 60 67 100 100

GFSCGP_prec_cloud_027.txt.gz
Cloud_Cover
5 5 6 5 5 5 5 46 64 10 5 5 5 13 14 5 5 54 6 6 44 28 95 100 100 100 100 100 90 10 75 97 86 94 100 100 100 70 28 100 100 100 100 100
5 26 61 45 5 5 6 31 15 25 5 5 0 5 5 5 5 5 5 5 5 5 42 60 87 97 100 100 100 100 100 100 100 76 26 78 100 100 100 100 100 100 100 100
5 6 12 5 5 5 5 5 5 5 4 0 0 0 1 4 5 5 1 1 3 5 5 5 62 97 100 100 100 100 100 100 100 100 100 91 6 99 100 100 100 100 100 92
8 66 5 5 5 5 44 5 5 5 5 4 5 5 5 5 5 5 5 4 0 5 5 12 43 78 100 100 96 73 59 30 82 100 52 94 95 99 56 17 6 19 100 100
19 5 5 11 50 23 43 79 26 24 86 78 93 5 5 96 92 79 93 28 6 5 5 56 14 65 6 89 100 100 55 6 28 99 25 5 82 30 11 59 99 69 18 26
81 93 51 35 100 92 83 84 88 31 10 5 8 5 99 92 94 56 48 87 46 20 38 8 5 7 5 12 21 62 53 53 12 17 22 23 8 42 84 85 76 5 63 19
14 98 97 90 82 80 65 89 98 36 100 38 38 63 96 22 8 29 79 7 5 31 35 81 5 5 5 5 5 7 5 4 16 17 34 33 28 80 96 10 33 43 91 23
100 100 99 100 100 100 95 100 100 89 98 33 91 96 100 98 100 98 99 80 8 5 5 11 5 10 11 6 5 5 5 5 6 3 4 5 5 24 13 5 23 13 88 90
100 95 100 50 87 100 100 98 100 100 72 84 95 96 100 100 100 74 53 5 34 12 5 5 6 36 57 60 36 31 5 2 2 0 0 0 0 1 0 4 5 6 2 5
100 46 100 100 100 100 100 100 99 96 33 92 10 26 73 100 94 47 26 18 6 5 12 27 21 44 58 55 38 10 5 0 1 5 5 5 5 3 1 2 2 4 5 5
100 78 100 100 100 100 100 100 100 100 70 90 11 89 99 92 58 53 5 13 20 100 100 100 99 15 5 5 25 24 22 42 77 87 94 94 90 78 10 4 2 4 2 3
100 34 94 100 100 100 100 100 100 93 36 5 11 57 6 68 72 5 10 5 18 51 94 99 66 100 97 94 76 95 98 100 100 100 34 0 0 0 0 0 0 0 0 0
100 97 98 100 70 97 89 98 66 61 18 24 98 25 100 26 46 97 100 100 99 93 36 100 100 100 99 89 100 100 50 1 0 0 0 0 0 0 0 0 0 0 4 5
100 90 77 71 88 85 63 74 65 35 98 100 100 100 98 100 100 100 61 56 100 100 100 100 100 100 100 100 93 2 0 0 0 0 0 0 0 0 0 0 2 5 5 5
100 69 80 98 23 100 64 19 15 20 100 100 98 99 100 100 100 74 100 100 100 100 100 100 100 100 16 2 4 5 5 0 4 4 4 1 0 0 1 5 5 1 0 0
95 99 100 100 100 97 35 5 99 100 100 100 100 100 100 99 100 100 100 100 100 100 100 100 82 5 12 20 24 50 68 6 5 5 2 0 4 5 4 3 0 0 0 0
88 100 100 100 100 100 87 96 100 100 100 100 100 100 100 95 98 100 100 100 100 100 100 95 82 100 100 95 27 2 5 26 5 5 5 5 5 5 2 0 0 0 0 0
88 100 100 100 100 100 95 46 100 100 100 100 100 100 100 100 65 99 100 100 100 100 30 59 66 41 5 5 3 0 0 3 2 5 5 5 2 5 1 0 0 0 0 0
99 100 100 100 100 100 30 96 100 100 100 62 100 100 100 51 99 100 100 100 51 14 6 5 5 2 0 0 0 0 2 0 0 3 5 5 5 5 5 5 5 5 5 5
100 100 100 100 100 81 100 100 100 100 100 100 100 97 100 100 100 96 62 5 33 5 5 4 0 0 0 0 0 0 5 0 0 5 5 5 5 5 5 5 5 5 5 5
100 100 100 100 100 83 100 100 100 100 100 100 100 100 100 99 48 4 5 5 5 5 1 0 0 0 0 0 0 0 0 0 4 5 38 35 5 5 5 5 5 5 5 5
100 100 100 100 100 100 100 100 100 87 99 93 100 100 93 75 8 3 3 2 2 0 0 0 0 0 0 2 0 0 1 10 66 88 100 98 6 5 5 5 5 5 5 32
100 100 100 100 100 100 100 100 100 79 7 80 10 13 5 1 0 0 0 0 0 0 0 0 3 0 0 4 2 0 5 96 100 100 100 100 63 5 5 31 6 5 9 58
100 100 100 100 100 100 100 76 59 37 5 3 0 0 0 0 0 0 0 0 0 0 0 5 5 5 5 5 5 5 84 100 100 87 99 100 100 17 5 5 5 47 19 81
100 100 100 100 100 100 69 35 5 5 5 3 4 4 5 4 2 5 1 3 3 3 5 5 5 5 5 5 5 5 100 99 100 97 100 100 100 23 5 5 5 28 83 100
100 100 100 100 100 76 19 42 4 0 0 4 5 5 5 5 4 5 0 1 83 66 5 5 5 5 5 5 5 78 100 100 72 98 96 100 77 5 5 5 5 8 92 100

GFSCGP_prec_cloud_030.txt.gz
Cloud_Cover
30 95 23 5 6 15 6 56 71 24 5 65 24 63 5 3 5 0 2 0 5 5 5 49 56 44 38 53 72 51 5 5 50 26 5 5 5 15 70 24 92 92 100 100
5 64 6 22 7 5 5 4 5 0 0 4 5 49 5 0 0 5 5 2 0 0 4 5 5 5 5 5 12 6 44 48 15 34 9 88 100 50 11 94 19 6 5 6
5 11 81 29 5 5 1 5 1 0 0 1 2 4 1 4 0 0 3 5 0 0 0 1 4 2 4 4 8 19 53 60 6 28 35 12 5 18 6 6 25 78 34 5
6 75 26 6 59 5 5 1 1 4 3 1 4 5 69 50 60 40 6 6 5 5 5 25 17 5 5 5 5 5 12 10 72 65 82 91 51 35 3 4 46 5 1 3
90 64 100 100 61 9 54 41 5 5 39 49 99 14 5 97 20 70 64 88 32 20 28 77 36 22 11 60 56 13 5 4 5 5 10 74 67 81 94 25 25 5 6 36
55 77 97 100 100 53 8 28 12 17 34 100 93 6 79 100 100 100 100 99 94 95 32 73 50 89 61 86 91 46 7 6 16 13 23 5 5 12 17 5 24 25 10 6
100 100 100 100 100 100 100 100 100 100 100 100 100 91 100 84 99 100 100 56 14 6 22 5 56 29 13 75 95 59 34 12 16 49 31 64 36 16 23 6 5 27 27 5
100 100 100 96 71 94 100 94 5 6 34 75 100 100 100 100 100 100 100 100 92 72 14 13 19 5 5 5 6 18 22 52 14 9 86 58 87 44 27 5 5 5 5 5
100 100 100 92 100 99 100 98 50 8 100 100 100 100 100 100 100 100 100 81 38 5 5 5 5 18 82 6 5 5 5 10 40 45 6 9 31 5 5 12 8 10 62 38
100 100 100 100 100 100 100 100 100 100 100 100 100 100 100 100 100 100 100 49 5 16 24 5 5 73 29 36 60 98 85 80 8 12 19 5 5 5 25 91 94 100 100 100
100 100 100 100 100 100 100 100 100 100 96 25 91 100 100 100 100 100 83 75 18 5 5 10 38 100 100 100 77 20 13 5 19 6 5 6 48 82 26 10 1 0 2 1
100 100 100 100 100 100 100 100 100 100 100 60 14 85 60 68 58 4 5 5 5 27 57 100 100 100 100 41 5 56 23 5 6 37 47 62 4 4 5 7 6 5 5 2
100 100 100 100 100 100 100 100 100 94 52 99 96 33 93 98 14 5 5 5 5 35 90 79 62 49 38 53 100 100 68 78 70 42 5 5 5 5 5 5 5 3 5 5
100 100 100 100 100 100 100 100 100 100 84 92 87 86 56 99 93 50 5 6 99 98 74 83 100 100 70 100 99 100 89 80 10 5 5 5 4 3 0 0 0 0 0 0
100 100 100 100 100 100 100 100 100 100 100 100 98 95 100 100 100 34 99 98 29 5 98 99 5 90 100 100 77 96 100 58 3 5 3 0 4 5 2 0 2 0 0 0
100 100 100 100 100 100 82 100 100 100 85 100 100 31 100 98 100 100 57 6 64 98 76 22 100 100 99 100 63 12 5 5 5 5 5 5 4 3 4 1 0 0 0 0
100 100 100 100 100 100 100 100 100 100 77 97 100 89 100 100 100 64 100 100 99 15 86 100 100 100 100 99 85 81 10 5 5 5 5 5 5 4 0 2 0 0 0 0
100 100 100 100 100 97 85 100 100 46 11 58 64 96 100 56 22 17 36 92 14 100 100 100 100 100 100 93 95 18 5 5 4 5 5 5 2 3 5 4 1 0 0 0
100 100 100 100 100 98 5 54 87 40 20 36 97 100 88 29 69 90 99 100 100 100 100 100 100 100 89 11 6 5 5 5 0 0 5 5 3 5 5 5 5 5 5 5
100 100 100 100 100 100 11 49 99 84 40 46 100 97 76 87 78 95 40 9 100 99 100 100 88 25 3 3 0 5 5 2 0 2 5 4 5 5 5 5 5 5 8 5
100 100 100 100 100 93 100 100 100 100 100 61 97 50 100 100 44 27 100 100 100 100 100 70 4 0 0 0 4 5 5 0 4 5 5 7 26 5 5 5 5 5 5 5
100 100 100 100 100 100 100 100 100 100 100 98 82 100 99 31 50 96 100 100 100 97 24 10 0 0 0 4 4 5 4 4 5 5 5 68 88 98 43 5 76 59 54 7
100 100 100 100 100 100 100 100 100 100 100 100 100 100 90 86 100 100 100 90 29 2 0 0 0 0 0 5 4 5 4 5 5 5 26 100 88 100 91 41 85 100 100 49
100 100 100 100 100 100 100 100 100 100 100 100 92 54 36 100 100 90 63 41 0 0 0 4 5 5 5 5 5 4 5 5 5 5 54 100 53 95 100 80 100 100 100 34
100 100 100 100 100 100 100 100 100 100 100 100 20 52 100 58 18 35 1 0 0 0 4 5 5 5 5 58 46 19 5 5 5 5 88 30 66 100 100 99 100 100 100 85
100 100 100 100 100 100 100 100 100 78 26 71 89 83 90 64 3 0 0 0 0 0 5 5 5 6 76 90 96 100 72 11 5 7 88 72 99 100 100 100 99 100 97 100

GFSCGP_prec_cloud_033.txt.gz
Cloud_Cover
56 90 98 5 5 41 63 13 5 0 1 5 5 5 0 0 3 0 0 0 0 0 5 0 0 0 0 0 0 5 5 5 2 0 2 5 4 10 25 5 4 5 1 4
47 93 15 22 88 42 44 8 28 5 1 3 0 2 0 0 0 0 0 0 0 0 1 0 2 0 0 0 0 3 5 5 5 5 5 3 5 2 0 0 0 1 5 11
20 100 100 42 8 8 33 10 82 7 5 5 0 22 5 5 2 4 5 5 5 4 5 40 54 14 30 33 12 4 5 5 5 5 5 5 5 5 5 2 0 2 2 2
6 74 67 22 50 8 7 78 15 5 5 5 3 9 80 5 51 72 17 6 5 6 16 19 64 39 74 97 42 81 92 87 55 27 6 25 10 5 12 4 1 2 3 0
12 41 53 72 67 5 26 77 44 54 6 43 73 4 56 98 100 100 100 100 100 99 98 8 100 100 86 4 3 5 10 48 93 69 53 71 71 58 10 5 5 56 4 7
93 64 87 98 99 24 53 78 19 69 100 83 100 8 33 100 100 100 100 100 100 100 100 100 100 100 98 23 8 5 41 6 5 8 41 26 72 53 49 32 5 44 79 6
98 100 91 72 100 90 87 51 68 100 100 100 100 74 99 100 100 100 100 100 100 100 100 100 100 100 100 100 91 66 30 16 75 39 44 13 40 8 7 38 68 15 6 5
100 98 55 100 100 100 98 100 100 100 100 9 62 98 100 97 100 100 100 100 100 100 100 100 100 100 100 100 45 79 78 69 45 43 37 20 85 88 5 6 5 5 5 9
100 100 92 100 100 100 100 100 100 100 100 37 100 100 100 100 100 100 100 100 100 100 100 100 100 100 100 97 37 46 41 6 48 5 6 6 21 25 54 5 5 5 8 7
100 100 100 100 100 100 100 100 100 100 100 86 80 99 90 100 100 100 100 100 100 100 81 45 36 10 5 5 5 1 4 5 5 5 5 5 29 45 34 16 12 5 19 54
100 100 100 100 100 100 100 100 100 100 79 100 100 100 100 100 100 100 100 100 100 100 100 94 31 89 49 7 5 5 11 7 5 5 6 8 41 15 20 50 8 78 74 44
100 100 100 100 100 100 100 100 100 100 100 100 100 100 100 100 100 100 100 88 100 100 100 24 6 6 56 86 75 14 5 5 5 6 16 100 100 8 53 6 83 49 5 5
100 100 100 100 100 100 100 100 100 100 100 100 100 100 100 100 100 100 100 100 100 100 71 20 5 28 5 4 28 5 1 1 5 5 6 32 44 12 85 56 5 5 5 5
100 100 100 100 100 100 100 100 100 100 100 100 100 100 100 100 100 100 100 100 100 100 100 100 9 12 17 18 5 5 5 5 5 5 12 90 42 60 7 5 3 0 0 0
100 100 100 97 80 28 42 68 98 100 100 100 100 100 100 100 100 100 100 100 100 100 24 5 58 5 5 7 5 5 74 82 15 57 86 63 53 5 4 0 0 0 0 0
100 100 100 100 100 90 67 80 100 100 100 100 100 100 100 100 100 100 100 100 100 55 87 74 5 16 10 6 43 100 94 86 89 100 95 7 5 3 2 0 0 0 0 0
100 100 100 100 100 100 99 100 100 99 100 100 100 100 100 100 100 72 74 40 88 96 5 19 96 100 99 63 100 100 100 100 98 63 5 5 5 5 0 2 0 0 0 0
100 100 100 100 100 100 49 14 70 82 89 100 100 100 100 100 58 70 99 100 9 71 61 95 100 88 100 100 73 71 63 100 70 26 5 5 4 3 2 0 0 0 0 0
100 100 100 100 100 70 10 70 85 100 83 100 100 100 100 95 100 98 100 82 100 100 100 100 100 100 100 100 100 100 100 21 68 12 2 5 3 5 1 2 0 3 4 0
100 100 100 100 100 100 56 98 100 100 77 77 100 100 100 100 94 91 100 100 19 66 100 100 100 100 100 98 97 30 23 15 5 1 0 5 5 5 5 0 5 5 5 5
100 100 100 100 100 100 99 100 100 100 94 100 99 100 100 100 95 100 100 100 98 100 100 100 100 100 100 66 96 100 5 3 2 5 5 5 5 5 5 13 99 5 5 5
100 100 100 100 100 100 100 100 100 100 100 100 100 100 100 100 100 100 100 100 100 100 100 100 100 96 100 99 99 5 3 2 4 5 5 5 5 4 5 84 90 5 5 5
100 100 100 100 100 100 100 100 100 100 100 100 100 100 100 100 100 100 100 99 100 96 100 100 100 100 100 93 6 5 2 5 5 5 5 5 5 5 5 6 6 5 53 12
100 100 100 100 100 100 100 100 100 100 93 100 100 100 100 100 100 70 93 88 100 100 100 100 100 100 93 15 5 1 5 5 5 5 5 5 5 5 23 92 42 5 5 25
100 100 100 100 100 100 100 100 100 100 100 100 100 100 100 100 100 47 98 100 100 100 100 67 20 4 0 5 24 17 5 5 6 5 5 5 5 5 42 63 23 7 84 36
100 100 100 100 100 100 100 100 100 100 100 100 100 100 100 100 100 100 100 100 100 100 53 5 5 5 5 5 5 54 83 91 83 43 45 11 5 5 10 78 68 95 74 99

GFSCGP_prec_cloud_036.txt.gz
Cloud_Cover
5 8 100 0 0 4 5 5 28 5 5 1 0 5 0 5 5 0 0 0 0 0 0 0 0 0 4 3 0 13 86 100 100 100 97 74 0 2 0 0 0 0 0 0
5 24 15 5 5 8 23 5 100 13 5 5 5 14 2 5 2 0 0 0 0 0 0 0 0 5 5 5 37 21 77 92 98 19 3 3 0 3 2 0 0 0 0 0
5 5 6 5 5 8 33 14 63 5 5 5 5 27 53 12 5 0 2 4 0 0 0 1 17 35 5 53 5 5 13 100 100 55 1 0 0 0 0 0 0 0 1 0
5 48 74 57 28 26 5 12 5 5 5 5 20 43 100 100 19 5 5 5 3 4 35 98 95 96 95 96 99 100 86 100 100 62 94 91 92 99 29 6 4 2 1 4
64 98 98 93 100 6 4 5 5 5 5 5 97 100 100 100 100 100 100 19 5 68 77 100 100 100 100 100 100 100 100 100 100 100 100 95 97 7 32 52 5 5 5 5
80 93 100 100 100 22 5 5 5 5 5 10 100 71 64 100 100 100 100 100 100 100 100 100 100 100 100 100 100 100 100 100 100 100 100 100 91 21 16 51 20 5 5 5
66 55 37 94 100 100 72 39 6 8 6 42 98 19 76 100 100 100 100 100 100 100 100 100 100 100 100 100 100 100 100 100 96 82 5 5 1 1 5 8 1 7 23 5
49 10 98 100 100 100 87 57 42 29 22 18 5 24 100 100 100 100 100 100 100 100 100 100 100 100 100 100 100 100 100 100 31 5 43 59 98 84 32 75 8 28 5 26
88 5 58 100 100 100 95 28 100 100 13 7 10 77 100 100 98 100 100 100 100 100 100 100 100 100 100 100 100 100 100 92 35 84 60 60 63 5 10 21 27 55 5 5
58 99 100 100 100 100 99 100 100 100 100 81 26 99 100 100 100 100 100 100 100 100 100 100 100 100 100 100 100 100 100 100 100 100 74 38 6 2 1 3 4 5 5 5
100 80 100 100 100 100 100 100 100 100 100 100 100 63 100 100 100 100 100 100 100 100 100 100 100 100 100 100 100 100 100 100 100 49 39 63 20 98 14 5 31 1 5 5
100 100 100 100 100 100 100 100 100 100 100 100 83 90 100 100 100 100 100 100 100 100 100 100 100 100 100 100 100 100 100 70 7 20 48 22 0 2 5 5 5 5 5 28
100 100 100 100 100 100 100 100 100 100 100 100 100 100 100 100 100 100 100 100 100 100 100 100 100 100 100 100 100 46 5 4 5 1 33 10 9 42 4 5 5 5 72 12
100 100 100 100 100 100 100 100 100 100 100 100 93 100 100 100 100 92 87 100 100 100 100 100 100 100 100 13 82 10 14 5 4 5 7 5 5 5 5 5 5 5 3 1
100 100 100 100 100 100 100 100 100 100 100 100 97 100 100 100 100 62 17 100 100 100 100 100 100 100 90 69 88 63 5 5 2 5 5 5 5 5 5 9 4 3 0 0
100 100 100 100 100 100 88 31 100 100 100 100 100 100 100 100 100 100 69 62 13 5 75 52 80 72 99 100 100 100 7 47 6 5 5 10 69 5 5 4 5 0 0 0
100 100 100 94 91 100 100 64 79 100 100 100 93 100 100 100 100 100 70 100 100 92 97 75 74 96 100 100 92 20 9 68 98 85 21 26 5 85 5 0 5 0 0 0
100 100 100 100 100 100 9 7 98 100 93 100 96 100 100 100 100 100 100 99 100 98 98 100 79 51 89 86 37 18 50 7 15 22 87 27 44 5 2 5 0 0 0 0
100 100 100 100 100 92 40 47 78 89 66 98 100 100 100 100 100 100 100 100 91 100 100 100 84 98 91 100 100 92 100 100 14 50 77 62 5 5 2 0 0 0 0 0
100 100 100 100 100 100 6 90 100 100 92 93 100 100 100 100 99 97 92 100 100 100 100 100 100 100 100 100 100 100 100 100 100 100 68 5 5 5 5 0 0 0 0 0
100 100 100 100 100 100 100 100 100 100 53 100 100 100 100 100 99 100 100 100 100 100 100 100 100 100 100 100 100 100 100 96 99 68 5 5 4 4 0 0 0 5 5 5
100 100 100 100 100 100 100 100 100 100 100 100 100 100 100 100 100 100 100 100 100 100 100 100 100 100 100 100 100 100 100 100 98 7 31 12 5 0 3 5 5 5 5 5
100 100 100 100 100 100 100 100 100 100 100 100 100 100 100 100 100 100 100 100 100 100 100 100 100 100 100 100 100 100 100 43 14 43 6 5 5 5 5 5 5 5 5 5
100 100 100 100 100 100 100 100 100 100 100 100 100 100 100 100 100 100 100 100 100 100 100 100 100 100 100 98 100 98 43 8 14 5 5 14 5 5 5 5 5 5 73 9
100 100 100 100 100 100 100 100 100 100 100 100 100 100 100 100 100 100 100 100 100 100 100 100 100 99 94 78 42 47 5 5 5 81 100 100 78 63 25 21 34 5 43 53
100 100 100 100 100 100 100 100 100 100 100 100 100 100 100 100 100 100 100 100 100 100 100 89 89 99 97 92 9 5 5 5 84 100 100 90 96 100 62 57 5 5 13 87

GFSCGP_prec_cloud_042.txt.gz
Cloud_Cover
100 58 100 95 5 5 0 0 5 4 0 0 0 0 0 4 5 5 0 0 0 0 0 0 0 0 2 97 100 100 100 100 100 100 100 100 100 96 9 62 90 31 90 100
100 88 100 91 94 43 5 0 2 4 0 0 0 0 0 4 26 4 4 4 5 5 0 3 2 0 0 74 100 100 100 100 100 100 100 94 46 55 73 42 44 38 98 55
87 99 100 100 100 16 5 0 3 0 0 0 0 1 4 4 63 50 1 5 5 5 5 5 5 0 1 56 100 100 100 100 84 50 20 32 100 100 100 100 98 100 100 100
38 100 59 100 13 69 5 5 3 2 0 0 0 1 5 34 2 46 95 0 3 5 5 5 31 98 100 68 100 100 100 95 100 98 93 94 100 100 100 100 100 100 100 97
11 59 8 11 100 42 5 5 2 1 0 0 3 0 91 89 6 46 39 3 5 15 62 58 90 52 5 5 5 87 100 100 100 100 100 100 100 100 100 100 100 100 100 100
100 92 29 99 100 71 5 5 1 1 2 0 12 1 3 100 100 80 5 5 5 5 1 4 5 5 5 9 94 100 100 100 99 100 96 96 100 100 100 100 100 100 100 100
100 97 23 100 100 99 54 5 4 4 4 0 4 5 84 100 100 100 100 72 15 13 6 7 5 5 10 89 100 100 98 33 12 19 99 100 100 100 100 100 100 100 100 100
100 100 49 91 100 88 5 5 5 12 2 3 0 1 99 96 83 100 100 100 100 84 10 5 5 30 100 100 100 100 25 15 88 100 100 100 100 100 100 100 100 100 100 100
100 97 96 96 100 98 6 4 95 22 5 5 0 5 8 77 100 100 100 100 100 100 94 32 11 95 100 100 100 100 100 100 100 100 100 100 100 100 100 100 100 100 100 100
100 75 5 5 73 75 4 74 99 91 5 5 0 0 4 66 100 98 100 100 100 100 100 100 72 69 95 93 100 100 100 100 100 100 100 100 100 100 100 100 100 100 100 100
100 85 5 5 5 98 34 5 18 100 25 5 4 0 2 9 84 100 100 100 100 100 84 23 78 98 100 100 97 98 100 100 100 100 100 100 100 100 100 100 100 100 83 46
100 100 100 26 5 16 100 100 99 100 48 15 3 21 2 5 26 100 100 100 92 87 70 91 100 100 84 46 100 100 100 100 100 100 100 100 100 100 100 100 100 85 15 72
100 100 100 72 17 90 100 100 99 92 61 4 45 27 30 90 5 12 57 69 95 100 100 100 100 100 100 100 100 100 100 100 100 100 100 100 100 97 91 85 80 60 88 51
100 100 100 88 100 100 100 100 100 100 24 53 2 61 99 89 7 25 10 25 96 79 100 100 100 100 100 100 100 100 100 100 99 100 81 49 43 29 25 15 56 43 2 5
100 100 100 100 100 100 100 100 100 100 100 96 80 32 100 100 100 100 72 98 47 94 100 100 100 100 100 100 100 98 92 94 41 51 71 86 13 47 6 98 85 80 48 15
100 100 100 100 100 100 100 100 94 90 100 100 94 4 100 100 100 12 68 98 92 85 96 100 92 43 68 75 86 100 92 88 100 98 62 62 22 89 75 100 99 22 5 5
100 100 100 100 100 100 100 81 100 66 50 17 6 78 97 93 100 99 85 94 100 100 100 100 100 99 81 78 100 100 100 77 98 98 79 66 95 44 100 69 5 7 42 63
100 100 100 99 100 100 66 100 100 100 6 20 5 76 96 99 100 100 100 100 100 100 100 100 99 93 100 100 99 100 98 74 100 100 72 97 79 100 88 36 61 82 100 96
100 100 100 100 100 86 4 86 100 100 5 79 14 94 100 100 100 100 100 100 100 100 92 100 100 100 100 100 100 100 100 100 100 99 97 100 100 99 100 100 100 100 98 14
100 100 100 100 100 99 5 96 27 77 5 100 100 100 100 100 100 100 100 100 100 68 100 100 100 100 100 100 100 100 100 100 100 100 100 100 100 100 100 100 90 93 60 37
100 100 100 100 100 92 5 62 76 98 90 99 94 88 100 100 100 100 100 100 100 100 100 100 100 100 100 100 100 100 100 100 98 100 84 100 100 100 98 33 24 13 40 20
100 100 100 100 100 100 28 94 69 98 54 36 73 93 100 100 100 100 100 100 100 100 100 100 100 100 100 100 100 100 100 99 67 68 100 100 100 100 43 41 41 99 94 98
100 100 100 100 100 100 100 100 100 100 100 100 94 76 100 90 74 75 97 98 100 100 75 100 100 88 91 100 92 61 39 57 63 100 100 100 100 98 79 100 100 100 100 28
100 100 100 100 100 100 100 100 100 100 100 100 98 67 73 88 94 100 100 100 100 100 97 100 95 83 79 21 8 60 100 100 100 100 100 100 100 100 100 100 70 79 5 5
100 100 100 100 99 100 100 100 100 100 100 100 100 98 87 84 93 99 100 100 98 93 91 100 96 94 94 51 100 100 100 100 100 100 100 100 100 100 98 74 60 5 5 5
100 100 100 100 100 100 100 100 100 100 100 100 100 100 100 100 100 100 100 100 100 85 80 100 97 100 100 100 100 100 100 100 100 100 100 100 70 91 48 5 8 5 32 68

GFSCGP_prec_cloud_045.txt.gz
Cloud_Cover
5 5 100 100 8 5 5 2 5 4 0 1 0 0 0 1 3 5 5 0 0 0 0 0 0 0 0 0 13 92 100 100 100 100 100 92 100 100 100 100 20 5 88 99
100 100 100 100 43 9 41 4 3 2 0 0 0 0 0 0 5 5 5 5 0 0 0 0 0 0 0 0 2 70 95 100 100 100 100 100 100 100 98 24 21 32 71 100
100 100 100 100 100 65 88 5 5 0 0 0 0 4 3 5 5 5 5 18 70 2 0 0 0 0 0 0 10 31 98 100 100 100 100 100 100 100 100 100 88 99 100 100
92 100 100 100 89 95 6 49 5 2 0 0 0 20 5 22 5 49 100 5 2 5 5 0 0 0 1 5 36 96 100 100 100 100 100 100 100 100 100 100 100 100 100 97
100 100 100 100 100 100 26 5 5 0 0 0 2 0 96 56 33 5 8 6 5 5 5 5 5 1 0 7 25 98 100 91 78 100 100 100 100 57 57 62 65 100 100 100
96 83 100 100 100 70 7 6 5 0 0 0 4 0 18 100 100 100 48 90 1 1 5 5 5 4 5 5 34 64 89 36 68 100 100 100 75 56 55 42 77 100 100 100
100 100 44 54 100 100 100 97 4 0 0 0 0 0 8 100 100 100 100 83 6 5 5 5 5 5 12 17 10 81 82 67 98 100 100 62 69 77 88 100 100 100 100 100
100 100 100 100 100 100 57 3 1 5 1 0 0 0 2 0 7 94 73 57 100 100 88 17 5 5 5 5 14 23 73 100 97 62 52 98 94 89 96 100 100 100 100 100
100 90 73 100 100 100 14 2 100 87 5 14 0 0 0 4 4 5 100 99 58 56 100 100 99 10 6 12 54 67 100 96 76 72 100 100 100 100 100 100 100 100 100 100
99 75 100 100 100 59 33 73 87 20 5 5 3 2 0 0 5 6 71 99 36 6 31 36 58 83 100 100 96 70 100 100 86 100 100 100 100 100 100 100 100 100 100 100
100 62 50 66 27 99 100 12 92 95 6 2 3 0 5 5 1 5 68 100 100 97 7 5 5 12 62 67 97 100 100 100 100 100 100 100 100 100 100 100 100 100 100 100
100 100 100 53 86 99 67 4 65 32 36 11 2 24 2 10 80 40 5 18 100 92 29 5 39 90 100 70 58 100 100 100 100 100 100 100 100 83 100 98 84 93 61 45
100 100 100 95 51 98 100 100 100 100 49 0 5 22 7 71 15 1 5 5 5 5 23 33 95 100 8 15 93 100 100 100 100 100 99 61 45 98 46 6 63 71 53 70
100 100 100 100 100 100 100 98 100 100 39 4 1 5 35 77 35 66 31 5 7 58 27 100 100 32 90 100 100 100 100 100 100 72 60 66 82 78 70 99 98 98 88 86
100 100 100 100 100 100 100 100 100 100 67 25 9 1 100 100 100 76 8 5 5 12 7 30 23 58 94 100 80 99 100 100 100 100 100 100 78 31 67 100 100 86 96 71
100 100 100 100 100 100 100 100 64 48 70 69 65 6 100 100 100 76 65 31 38 17 28 95 100 100 100 100 100 100 100 100 99 100 100 100 95 75 82 97 100 94 78 100
100 100 100 76 100 100 100 6 97 44 5 71 16 65 100 100 100 100 98 98 59 73 92 100 100 100 100 100 100 100 100 97 100 100 100 100 100 100 100 99 97 100 100 94
100 100 100 75 100 100 14 26 45 85 5 15 15 77 58 46 94 96 23 6 78 68 95 100 95 100 100 100 100 100 100 100 100 100 100 100 100 100 100 100 100 100 98 100
100 100 100 100 100 61 5 56 100 97 6 100 14 52 100 99 92 5 80 100 86 21 90 100 100 100 100 100 100 100 100 100 100 100 100 100 100 100 100 100 100 100 100 99
100 100 100 100 100 99 6 35 43 98 12 100 100 100 100 100 30 98 100 100 73 100 99 99 100 100 100 100 100 100 100 100 100 100 100 100 100 100 100 100 100 100 97 51
100 100 100 100 100 100 53 67 80 98 42 44 76 100 100 99 100 100 100 100 100 100 100 100 100 100 100 100 100 100 100 100 100 100 100 100 100 100 100 100 100 92 51 97
100 100 100 100 100 100 79 81 74 53 91 76 67 97 99 100 100 100 100 100 100 100 100 100 100 100 100 97 89 95 100 100 100 100 100 100 100 100 99 47 13 29 96 63
100 100 100 100 100 100 100 100 100 100 100 93 100 99 87 100 100 100 100 98 99 100 100 100 100 100 100 100 100 100 87 100 99 100 90 92 53 64 82 80 40 9 99 100
100 100 100 100 100 100 100 100 100 100 100 100 100 100 100 100 100 100 100 100 100 77 95 97 100 100 100 100 100 97 85 86 70 30 21 6 48 91 91 100 100 79 48 100
100 100 100 100 100 100 100 100 100 100 100 100 100 100 100 100 100 100 100 100 93 100 100 100 100 100 100 100 97 85 45 5 6 23 98 100 100 100 89 65 64 39 100 82
100 100 100 100 100 100 100 100 100 100 100 100 100 100 100 100 100 100 100 100 100 100 100 100 100 89 88 96 81 67 59 86 100 100 100 100 50 65 48 57 87 98 74 98

GFSCGP_prec_cloud_048.txt.gz
Cloud_Cover
31 98 100 100 48 6 5 5 5 5 0 0 0 2 0 5 5 1 0 0 0 0 0 0 0 0 0 0 0 0 23 100 100 100 100 100 100 100 100 100 100 50 6 7
100 100 100 100 92 16 29 21 30 5 0 0 3 5 5 5 29 10 4 2 0 0 0 0 0 0 0 0 0 0 12 52 99 53 100 100 100 100 100 100 100 92 35 15
100 100 100 100 100 100 90 58 47 5 0 0 0 16 14 58 16 28 43 5 4 0 0 0 0 0 0 0 0 0 11 40 100 100 100 100 100 100 100 100 100 100 100 100
79 100 100 100 100 100 55 100 37 7 0 0 0 21 100 99 5 5 38 5 5 5 1 0 0 5 5 4 4 0 23 29 99 100 100 100 81 39 80 99 100 100 100 86
98 100 100 100 100 100 99 100 27 5 0 0 1 0 94 100 80 24 5 5 5 5 2 0 0 5 5 5 11 16 34 87 100 100 100 100 65 7 80 100 100 100 23 5
100 100 100 100 100 100 100 58 25 2 0 0 10 1 64 100 100 100 5 3 5 0 4 1 0 0 0 5 28 33 96 100 100 100 100 100 39 38 94 100 100 50 5 32
100 100 100 100 100 100 100 100 14 0 0 0 0 0 90 99 100 100 100 69 22 12 5 5 2 0 3 5 9 10 72 97 100 100 100 100 100 100 100 99 88 53 52 98
100 100 100 100 100 100 100 94 24 2 5 2 0 1 2 1 83 100 87 100 57 5 5 5 5 5 5 5 32 74 56 100 99 100 81 58 91 97 100 100 57 87 69 100
100 100 100 100 100 100 89 7 88 79 27 23 2 1 5 5 1 5 14 5 74 82 24 5 5 6 11 6 6 40 38 67 48 27 40 42 80 94 99 70 91 100 100 100
100 99 61 90 100 33 5 47 17 8 1 5 1 0 1 4 3 4 12 98 88 21 5 5 16 62 88 84 86 58 33 35 54 61 55 61 95 61 32 28 56 46 95 100
100 100 98 100 49 12 19 5 5 36 12 5 12 0 5 7 5 5 15 5 41 20 6 5 5 5 5 20 38 6 5 18 71 59 14 14 96 56 89 100 100 89 78 35
100 100 15 5 7 5 5 5 5 5 83 5 2 2 8 1 5 4 5 7 33 72 69 6 5 5 26 36 5 5 5 66 32 5 48 100 43 34 21 6 5 5 5 5
100 100 100 94 20 5 4 64 100 100 37 0 2 21 8 1 1 0 3 4 6 34 78 90 6 4 5 5 5 5 23 40 43 20 7 36 15 8 41 57 82 91 100 100
100 100 100 100 100 100 87 92 100 100 46 3 0 1 5 4 1 0 3 2 1 5 5 6 10 90 47 8 5 9 36 95 95 48 73 100 100 100 100 100 100 100 100 100
100 100 100 100 100 100 100 100 100 57 55 8 2 2 96 83 8 3 0 0 0 2 7 7 26 5 5 8 48 78 100 100 97 100 100 100 100 100 100 100 100 100 100 100
100 100 100 100 100 100 100 99 23 8 26 88 99 14 100 66 7 6 5 4 2 5 5 7 65 100 99 28 86 100 100 100 100 100 100 100 100 100 100 100 100 100 100 100
100 100 100 99 100 100 100 6 97 89 85 100 35 40 100 51 100 37 34 5 5 30 96 53 8 58 77 93 69 99 96 100 100 100 100 100 100 100 100 100 100 100 100 100
100 100 100 100 100 100 17 81 44 6 61 94 62 97 96 89 67 39 93 98 66 95 77 71 69 95 100 100 99 88 80 100 100 100 100 100 100 100 100 100 100 100 100 100
100 100 100 100 100 99 26 78 100 100 100 100 78 85 95 86 5 55 100 100 15 13 63 100 100 100 100 100 95 100 100 100 99 100 100 100 100 100 100 100 100 100 100 100
100 100 100 100 100 100 7 100 100 100 90 100 100 100 100 100 7 64 69 5 16 37 68 100 100 100 100 100 100 100 100 100 100 100 100 100 100 100 100 100 100 100 100 100
100 100 100 100 100 100 31 34 100 100 90 100 100 100 100 100 100 100 71 100 97 99 100 76 98 94 96 100 100 100 100 100 100 100 100 100 100 100 100 100 100 100 100 100
100 100 100 100 100 100 39 68 86 72 96 92 89 100 100 100 93 96 99 100 100 100 99 83 100 99 100 100 100 100 100 100 100 100 100 100 100 100 100 100 100 100 100 100
100 100 100 100 100 100 100 100 100 100 85 100 100 99 99 100 100 100 87 82 100 99 100 100 100 100 100 100 100 100 100 100 100 100 100 100 100 100 100 100 100 100 100 100
100 100 100 100 100 100 100 100 100 100 100 100 100 78 58 72 26 5 45 53 29 81 100 87 95 98 98 100 100 100 100 100 100 100 100 100 100 100 100 100 100 100 100 60
100 100 100 100 100 100 100 100 100 100 100 100 100 100 100 86 87 55 26 15 50 79 100 98 84 68 62 97 100 100 100 100 100 100 100 100 100 100 100 100 100 100 93 66
100 100 100 100 100 100 100 100 100 100 100 100 100 100 100 100 100 100 100 100 100 100 100 79 84 99 99 100 100 100 100 100 100 100 100 100 100 100 66 65 84 80 98 61